Location: Forest
(37.3641°N, 79.2902°W)
Time: 15:17:21
(UTC+00:00)

Envisat - Pass Details

Date: 20 October 2024
Orbit: 761 x 763 km, 98.3° (Epoch: 05 November)

Event Time Altitude Azimuth Distance (km) Brightness Sun altitude
Rises 08:44:23 0° 7° (N) 3,231 6.5 -33.5°
Reaches altitude 10° 08:46:43 10° 3° (N) 2,301 5.6 -33.1°
Enters shadow 08:46:49 11° 3° (N) 2,263 5.6 -33.1°
